Location: Recife
(8.0585°S, 34.8848°W)
Time: 21:28:40
(UTC-03:00)

S-56A Canister/Altair - Pass Details

Date: 15 April 2026
Orbit: 633 x 2484 km, 38.9° (Epoch: 16 May)

Event Time Altitude Azimuth Distance (km) Brightness Sun altitude
Rises 13:08:39 0° 317° (NW) 5,766 12.5 57.4°
Reaches altitude 10° 13:12:50 10° 319° (NW) 4,545 12.2 56.5°
Maximum altitude 13:24:39 69° 40° (NE) 1,634 10.0 54.0°
Drops below altitude 10° 13:32:23 10° 122° (ESE) 3,070 10.3 52.4°
Sets 13:34:41 0° 124° (SE) 3,831 10.7 51.8°
